Simultaneous Nadir Overpasses (SNOs) Predictions

Prediction of SNOs between AQUA and NOAA-19 Satellite Orbit:

Table of predicted SNOs for the next 14.0 days since TLE Epoch: 6/20/2015
Index Date (AQUA) Time (AQUA) Lat,Lon (AQUA) SZA (AQUA ) Date (NOAA-19) Time (NOAA-19) Lat,Lon (NOAA-19) SZA (NOAA-19 ) Distance(km) Time Diff (sec)
1 06/21/2015 16:23:22 -80.03, 83.58 121.91 06/21/2015 16:23:26 -80.03, 83.61 121.91 0.47 4
2 06/23/2015 21:07:40 -80.10, 11.88 121.76 06/23/2015 21:06:50 -80.11, 11.82 121.73 1.42 50
3 06/23/2015 21:57:04 80.00,-179.59 58.07 06/23/2015 21:57:52 80.00,-179.58 58.05 0.21 48
4 06/26/2015 02:41:22 80.09, 108.61 58.28 06/26/2015 02:41:16 80.09, 108.50 58.30 2.16 6
5 06/28/2015 07:25:39 80.15, 37.01 58.47 06/28/2015 07:24:38 80.14, 37.15 58.48 2.83 61
6 06/28/2015 08:15:01 -80.04,-154.46 121.70 06/28/2015 08:15:30 -80.04,-154.39 121.72 1.42 29
7 06/30/2015 12:59:18 -80.11, 133.88 121.46 06/30/2015 12:58:53 -80.10, 134.04 121.47 3.14 25
8 06/30/2015 13:48:42 80.01, -57.62 58.38 06/30/2015 13:49:55 80.02, -57.70 58.36 1.59 73




NCC Satellite Simultaneous Nadir Overpasses (SNOs) Prediction Service
